Location: Walton
(43.6794°N, 81.3017°W)
Time: 16:36:02
(UTC+00:00)

Cosmos 1428 Rocket - Visible Passes

Search period start: 14 March 2026 00:00
Search period end: 24 March 2026 00:00
Orbit: 946 x 987 km, 82.9° (Epoch: 14 March)

Date Brightness Start Highest point End Pass type
(mag) Time Alt. Az. Time Alt. Az. Time Alt. Az.
14 Mar 7.5 01:20:37 10° W 01:23:46 14° WNW 01:26:56 10° NNW visible
14 Mar 7.5 08:42:03 10° NE 08:44:46 13° ENE 08:47:29 10° E visible
14 Mar 4.7 10:24:46 10° N 10:31:02 79° E 10:37:17 10° S visible
14 Mar 5.5 23:54:33 10° SSW 00:00:28 53° WNW 00:06:28 10° N visible
15 Mar 6.9 09:03:22 10° NNE 09:08:04 22° ENE 09:12:46 10° ESE visible
15 Mar 4.5 10:47:37 10° NNW 10:53:46 63° W 10:59:56 10° S visible
16 Mar 6.5 00:18:08 10° SW 00:23:29 31° WNW 00:28:53 10° N visible
16 Mar 6.0 09:25:30 10° N 09:31:12 36° ENE 09:36:54 10° SE visible
17 Mar 7.3 00:42:26 10° WSW 00:46:39 19° WNW 00:50:54 10° NNW visible
17 Mar 5.1 09:48:00 10° N 09:54:09 60° ENE 10:00:21 10° SSE visible
18 Mar 7.7 01:08:26 10° WNW 01:10:00 11° WNW 01:11:35 10° NW visible
18 Mar 7.1 08:27:08 10° NNE 08:30:59 17° ENE 08:34:51 10° ESE visible
18 Mar 4.4 10:10:44 10° N 10:16:59 83° W 10:23:16 10° S visible
19 Mar 6.4 08:48:57 10° NNE 08:54:13 27° ENE 08:59:28 10° SE visible
19 Mar 4.7 10:33:41 10° NNW 10:39:40 49° W 10:45:39 10° SSW visible
20 Mar 7.0 00:04:39 10° WSW 00:09:34 25° WNW 00:14:33 10° NNW visible
20 Mar 5.6 09:11:17 10° N 09:17:16 45° ENE 09:23:15 10° SSE visible
20 Mar 5.3 10:56:57 10° NNW 11:02:11 29° W 11:07:28 10° SW visible
21 Mar 7.4 00:29:27 10° W 00:32:49 15° WNW 00:36:14 10° NNW visible
21 Mar 7.4 07:51:21 10° NE 07:53:51 12° ENE 07:56:21 10° E visible
21 Mar 4.7 09:33:53 10° N 09:40:09 76° E 09:46:27 10° SSE visible
22 Mar 6.8 08:12:32 10° NNE 08:17:11 21° ENE 08:21:48 10° ESE visible
22 Mar 4.5 09:56:43 10° NNW 10:02:55 66° W 10:09:07 10° S visible
23 Mar 6.0 08:34:39 10° N 08:40:19 35° ENE 08:45:59 10° SE visible
23 Mar 4.9 10:19:48 10° NNW 10:25:31 39° W 10:31:15 10° SSW visible
